Location: *
(42.5628°N, 2.3633°E)
Time: 08:53:28
(UTC+00:00)

Meteor 1-21 Rocket - Pass Details

Date: 30 March 2020
Orbit: 833 x 907 km, 81.2° (Epoch: 03 June)

Event Time Altitude Azimuth Distance (km) Brightness Sun altitude
Rises 19:54:31 0° 351° (N) 3,410 7.8 -18.5°
Reaches altitude 10° 19:56:58 10° 354° (N) 2,464 7.0 -18.9°
Maximum altitude 20:02:32 74° 79° (E) 872 4.1 -19.8°
Enters shadow 20:05:25 29° 159° (SSE) 1,476 5.1 -20.3°
